{"data":{"norad_id":63861,"intl_designator":"2025-093AB","name":"STARLINK-33896","alt_names":[],"object_type":"PAYLOAD","status":"ACTIVE","operator":null,"country":"US","launch_date":"2025-05-07","launch_site_code":"AFETR","launch_vehicle":null,"mission":null,"orbit_class":"UNKNOWN","rcs_meters":null,"size_class":null,"mass_kg":null,"dimensions":null,"purposes":["comms"],"wikipedia_slug":null,"has_3d_model":false,"image_url":null,"decayed_at":null,"tle_current":{"epoch":"2026-09-19T18:39:01.121184Z","epoch_age_seconds":209520,"freshness":"STALE","line1":"1 63861U 25093AB  26262.77709631  .00017793  00000+0  65430-3 0  9998","line2":"2 63861  43.0020  61.9210 0001721 268.4778  91.5877 15.27591419 77439","mean_motion":15.27591419,"eccentricity":0.0001721,"inclination_deg":43.002,"raan_deg":61.921,"arg_perigee_deg":268.4778,"mean_anomaly_deg":91.5877,"bstar":0.0006543,"rev_number":7743,"period_min":94.266044054022,"perigee_km":481.83409941607,"apogee_km":484.1957079013,"semimajor_km":6861.1519036587,"source":"CELESTRAK","updated_at":"2026-09-21T09:00:35.136380Z"}}}